Flag for French Polynesia Weather past 2 weeks in Papeete, Tahiti, French Polynesia

Now
75 °F

Mild.


Feels Like: 76 °F
Forecast: 75 / 87 °F
Wind: 3 mph from Southeast

Location: Tahiti-Faaa

Current Time: May 23, 2015 at 5:30:49 AM

Latest Report: May 23, 2015 at 5:00 AM


Visibility: N/A

Pressure: 29.98 "Hg

Humidity: 78%

Dew point: 68 °F

Location of PapeeteLocation

Historic Weather in Papeete — Graph

°F

Papeete temperature yesterday

Maximum temperature yesterday: 86 °F (at 10:30 AM)
Minimum temperature yesterday: 75 °F (at 5:00 AM)
Average temperature yesterday: 81 °F

Past Weeks' High & Low Weather Summary

 TemperatureHumidityPressure
High88 °F (May 18, 10:00 AM)94% (May 8, 1:30 PM)30.01 "Hg (May 8, 1:30 PM)
Low72 °F (May 8, 1:30 PM)55% (May 11, 10:00 AM)29.71 "Hg (May 8, 4:00 AM)
Average79 °F75%29.88 "Hg
* Reported May 8 4:00 AM — May 23 4:30 AM, Papeete, Weather by CustomWeather, © 2015

Note: Actual official high and low records may vary slightly from our data, if they occured in-between our weather recording intervals... More about our weather records

Advertising

Papeete weather history for previous 24 hours

 ConditionsComfort  
Time TempWeatherWind HumidityBarometerVisibility
4:30 AM
Sat, May 23
75 °FMild.5 mph78%29.98 "HgN/A
4:00 AM75 °FPassing clouds.2 mph74%29.98 "HgN/A
3:30 AM77 °FWarm.5 mph74%29.98 "HgN/A
3:00 AM75 °FPassing clouds.3 mph69%29.95 "HgN/A
2:30 AM75 °FPassing clouds.3 mph69%29.95 "HgN/A
2:00 AM77 °FPassing clouds.3 mph65%29.95 "HgN/A
1:30 AM77 °FPassing clouds.6 mph69%29.95 "HgN/A
1:00 AM75 °FPassing clouds.6 mph74%29.98 "HgN/A
12:30 AM75 °FPassing clouds.1 mph74%29.98 "HgN/A
12:00 AM75 °FPassing clouds.3 mph74%29.98 "HgN/A
11:30 PM
Fri, May 22
77 °FPassing clouds.5 mph69%29.98 "HgN/A
11:00 PM75 °FPassing clouds.3 mph74%29.98 "HgN/A
10:30 PM75 °FPassing clouds.3 mph74%29.98 "HgN/A
10:00 PM77 °FPassing clouds.5 mph74%29.98 "HgN/A
9:30 PM77 °FPassing clouds.2 mph74%29.98 "HgN/A
9:00 PM77 °FPassing clouds.3 mph74%29.98 "HgN/A
8:30 PM79 °FPassing clouds.3 mph74%29.98 "HgN/A
8:00 PM79 °FPassing clouds.3 mph79%29.98 "HgN/A
7:30 PM79 °FPassing clouds.5 mph79%29.98 "HgN/A
7:00 PM81 °FPassing clouds.5 mph74%29.98 "HgN/A
6:30 PM81 °FPassing clouds.3 mph74%29.98 "HgN/A
6:00 PM82 °FPassing clouds.3 mph70%29.95 "HgN/A
5:30 PM82 °FPartly sunny.5 mph70%29.95 "HgN/A
5:00 PM84 °FPartly sunny.7 mph66%29.92 "HgN/A
4:30 PM84 °FScattered clouds.8 mph66%29.92 "HgN/A
4:00 PM84 °FPassing clouds.9 mph66%29.92 "HgN/A
3:30 PM86 °FPassing clouds.9 mph62%29.89 "HgN/A
3:00 PM86 °FPassing clouds.9 mph62%29.89 "HgN/A
2:30 PM86 °FPassing clouds.10 mph66%29.89 "HgN/A
2:00 PM86 °FPassing clouds.9 mph66%29.89 "HgN/A
1:30 PM86 °FPassing clouds.9 mph66%29.92 "HgN/A
1:00 PM86 °FPassing clouds.8 mph62%29.92 "HgN/A
12:30 PM86 °FPassing clouds.7 mph66%29.95 "HgN/A
12:00 PM86 °FPassing clouds.8 mph66%29.95 "HgN/A
11:30 AM86 °FPassing clouds.9 mph66%29.95 "HgN/A
11:00 AM86 °FPassing clouds.9 mph62%29.98 "HgN/A
10:30 AM86 °FPassing clouds.9 mph66%29.98 "HgN/A
10:00 AM84 °FPassing clouds.10 mph66%29.98 "HgN/A
9:30 AM84 °FPassing clouds.9 mph66%29.98 "HgN/A
9:00 AM84 °FPassing clouds.9 mph66%29.98 "HgN/A
8:30 AM82 °FPassing clouds.8 mph70%29.98 "HgN/A
8:00 AM82 °FPassing clouds.7 mph70%29.98 "HgN/A
7:30 AM79 °FPassing clouds.5 mph74%29.98 "HgN/A
7:00 AM77 °FPassing clouds.5 mph74%29.98 "HgN/A
6:30 AM75 °FPassing clouds.5 mph74%29.95 "HgN/A
6:00 AM75 °FPassing clouds.5 mph74%29.95 "HgN/A
5:30 AM77 °FWarm.6 mph69%29.92 "HgN/A
5:00 AM75 °FMild.7 mph74%29.92 "HgN/A
Weather by CustomWeather, © 2015

See weather overviewHow to use our weather pages